Regional Weather Roundup
Issued by NWS

Home | Current Version | Previous Version | Graphics & Text | Print | Product List | Glossary On
Versions: 1 2 3 4 5 6 7 8 9 10 11 12 13 14 15 16 17 18 19 20 21 22 23 24 25 26 27 28 29 30 31 32 33 34 35 36 37 38 39 40 41 42 43 44 45 46 47 48 49 50
000
ASUS43 KBIS 131010
RWRND

NORTH DAKOTA REGIONAL WEATHER ROUNDUP
NATIONAL WEATHER SERVICE BISMARCK ND
500 AM CDT SUN JUL 13 2014

NOTE: "FAIR" INDICATES FEW OR NO CLOUDS BELOW 12,000 FEET WITH NO
SIGNIFICANT WEATHER AND/OR OBSTRUCTIONS TO VISIBILITY.


NDZ001>003-009>011-017-131100-
NORTHWEST NORTH DAKOTA

CITY           SKY/WX    TMP DP  RH WIND       PRES   REMARKS
WILLISTON      CLEAR     57  45  64 N8        30.13R
MINOT          CLEAR     55  45  68 W14       30.06R
MINOT AFB      CLEAR     53  49  86 W10       30.06R
$$

NDZ018>021-031>035-040>046-131100-
SOUTHWEST NORTH DAKOTA

CITY           SKY/WX    TMP DP  RH WIND       PRES   REMARKS
BISMARCK       CLEAR     58  54  86 NW6       30.07R
DICKINSON      CLEAR     53  48  83 W7        30.11S
GARRISON         N/A     52  48  86 NW10      30.07S
HETTINGER ARPT CLEAR     52  48  86 NW3       30.14S
$$

NDZ004>008-012>016-024-026-027-054-131100-
NORTHEAST NORTH DAKOTA

CITY           SKY/WX    TMP DP  RH WIND       PRES   REMARKS
GRAND FORKS    CLEAR     53  51  93 W8        29.93S
GRND FRKS AFB  CLEAR     54  53  98 W8        29.94S
DEVILS LAKE    CLEAR     55  46  71 NW10      29.98R
$$

NDZ022-023-025-028>030-036>039-047>053-131100-
SOUTHEAST NORTH DAKOTA

CITY           SKY/WX    TMP DP  RH WIND       PRES   REMARKS
FARGO          CLEAR     54  51  90 W6        29.96S
JAMESTOWN      PTCLDY    57  54  89 NW7       29.99F
$$



USA.gov is the U.S. government's official web portal to all federal, state and local government web resources and services.